Regional Weather Roundup
Issued by NWS

Home | Current Version | Previous Version | Graphics & Text | Print | Product List | Glossary On
Versions: 1 2 3 4 5 6 7 8 9 10 11 12 13 14 15 16 17 18 19 20 21 22 23 24 25 26 27 28 29 30 31 32 33 34 35 36 37 38 39 40 41 42 43 44 45 46 47 48 49 50
000
ASUS43 KMPX 281401
RWRMN
WEATHER ROUNDUP FOR MINNESOTA
NATIONAL WEATHER SERVICE TWIN CITIES/CHANHASSEN MN
900 AM CDT THU JUL 28 2016


NOTE: "FAIR" INDICATES FEW OR NO CLOUDS BELOW 12,000 FEET WITH NO
SIGNIFICANT WEATHER AND/OR OBSTRUCTIONS TO VISIBILITY. N/A MEANS
CURRENT SKY AND/OR WEATHER CONDITIONS ARE NOT AVAILABLE.

MNZ060>063-068>070-281500-
   Twin Cities Metro

CITY           SKY/WX    TMP DP  RH WIND       PRES   REMARKS
TWIN CITIES    CLOUDY    65  61  87 N9        30.02R
ST PAUL        CLOUDY    66  62  87 N9        30.03R
CRYSTAL        CLOUDY    64  59  83 N13       30.02S
BLAINE         CLOUDY    64  64 100 N8        30.04R FOG
LAKEVILLE      CLOUDY    64  64 100 N7        30.02R
EDEN PRAIRIE   CLOUDY    67  61  81 N10       30.01S
LAKEVILLE      CLOUDY    64  64 100 N7        30.02R
SOUTH ST PAUL  CLOUDY    67  63  85 N8        30.02R
LAKE ELMO      CLOUDY    64  63  94 N5        30.04R
$$
MNZ001>005-007-008-013>017-022>024-027-028-281500-
   Northwest Minnesota

CITY           SKY/WX    TMP DP  RH WIND       PRES   REMARKS
HALLOCK        SUNNY     63  55  77 NE7       30.15S
ROSEAU         SUNNY     61  55  82 N7        30.14F
WARROAD        SUNNY     64  59  82 N8        30.15S
THIEF RVR FALL SUNNY     64  56  75 E6        30.13F
CROOKSTON      SUNNY     64  59  82 E8        30.12S
FOSSTON        PTSUNNY   66  59  77 E5        30.12F
DETROIT LAKES  PTSUNNY   66  63  88 E3        30.11S
MOORHEAD       MOSUNNY   66  64  94 N3        30.09S
PARK RAPIDS    CLOUDY    68  61  78 N3        30.11R
MAHNOMEN       PTSUNNY   65  60  83 E3        30.11R
$$
MNZ006-009>011-018-025>026-281500-
   North Central Minnesota

CITY           SKY/WX    TMP DP  RH WIND       PRES   REMARKS
BAUDETTE       MOSUNNY   62  55  77 NE3       30.13S
FLAG ISLAND    CLOUDY    63  55  77 N9        30.14S
INTL FALLS     PTSUNNY   66  56  70 NE7       30.12R
WASKISH        SUNNY     64  57  77 CALM      30.12S
BIG FORK       SUNNY     64  57  77 CALM      30.12R
LONGVILLE      CLOUDY    63  63 100 CALM      30.10S
GRAND RAPIDS   CLOUDY    61  60  97 NW5       30.13S
ORR            SUNNY     63  55  77 CALM      30.09R
COOK           MOSUNNY   64  57  77 E3        30.11R
WALKER         PTSUNNY   64  59  86 NE3       30.11S
$$
MNZ012-019>021-037-281500-
   Northeast Minnesota

CITY           SKY/WX    TMP DP  RH WIND       PRES   REMARKS
DULUTH         SUNNY     68  54  60 E12       30.09R
ELY            SUNNY     61  57  88 CALM      30.11R
HIBBING        SUNNY     64  56  75 CALM      30.11R
EVELETH        SUNNY     65  55  70 E3        30.11S
DULUTH HARBOR  SUNNY     64  59  82 E8        30.08S
TWO HARBORS    SUNNY     72  57  60 E9        30.07S
SILVER BAY     SUNNY     68  54  60 E10       30.08R
GRAND MARAIS     N/A     67  51  56 NE10      30.09S
$$
MNZ029>031-032-039>041-046>048-054>057-064-281500-
   West Central Minnesota

CITY           SKY/WX    TMP DP  RH WIND       PRES   REMARKS
FERGUS FALLS   PTSUNNY   68  64  88 E7        30.09F
WHEATON        CLOUDY    66  64  94 CALM      30.10F
MORRIS         CLOUDY    66  64  94 CALM      30.07S
ALEXANDRIA     CLOUDY    67  60  78 NE7       30.10S
ELBOW LAKE     FAIR      67  63  85 NE6       30.09F
WADENA         CLOUDY    66  63  88 NE3       30.10S
GLENWOOD       PTSUNNY   64  61  88 NE7       30.09S
APPLETON       CLOUDY    68  61  77 NE8       30.05F
BENSON         CLOUDY    68  61  77 E5        30.07F
ORTONVILLE     CLOUDY    66  61  82 CALM      30.08S
MADISON        CLOUDY    66  61  82 NE6       30.07F
WILLMAR        FAIR      66  63  88 NE7       30.07F
$$
MNZ033>034-036-042>043-049>051-058-059-281500-
   Central Minnesota

CITY           SKY/WX    TMP DP  RH WIND       PRES   REMARKS
ST CLOUD       CLOUDY    64  58  80 NE8       30.06S
SAUK CENTRE    FAIR      65  59  82 NE6       30.08S
PAYNESVILLE    CLOUDY    64  63  96 NE8       30.08S
PINE RIVER     MOSUNNY   66  63  88 CALM      30.13S
BRAINERD       MOSUNNY   66  59  78 NE6       30.10R
STAPLES        MOSUNNY   64  59  82 NE3       30.10S
LONG PRAIRIE   FAIR      64  57  77 N6        30.09S
LITTLE FALLS   CLOUDY    63  55  77 NE5       30.08F
LITCHFIELD     CLOUDY    64  63  94 NE8       30.06F
BUFFALO        CLOUDY    62  59  89 N7        30.06S
MAPLE LAKE     CLOUDY    64  60  88 N6        30.06S
HUTCHINSON     CLOUDY    65  62  90 N7        30.06S
$$
MNZ037-044-045-052-053-281500-
   East Central Minnesota

CITY           SKY/WX    TMP DP  RH WIND       PRES   REMARKS
PRINCETON      CLOUDY    64  59  82 N9        30.06F
MORA           CLOUDY    63  55  77 NE3       30.09R
CAMBRIDGE      CLOUDY    64  55  72 N6        30.04S
RUSH CITY      LGT RAIN  64  59  85 N8        30.06R
MOOSE LAKE     CLOUDY    64  55  72 NE5       30.07R
HINCKLEY       PTSUNNY   64  59  82 NE8       30.07S
CLOQUET        SUNNY     66  54  63 E5        30.09S
MCGREGOR       CLOUDY    64  55  72 E7        30.09F
$$
MNZ071>073-080-081-089-090-097-098-281500-
   Southwest Minnesota

CITY           SKY/WX    TMP DP  RH WIND       PRES   REMARKS
MONTEVIDEO     CLOUDY    64  63  94 E9        30.06F
GRANITE FALLS  CLOUDY    66  63  90 N12       30.06F
CANBY          CLOUDY    66  62  87 NE5       30.09R
MARSHALL       CLOUDY    63  61  93 N8        30.07S
REDWOOD FALLS  CLOUDY    64  60  87 NE7       30.04F
OLIVIA         CLOUDY    63  59  88 NE8       30.05S
PIPESTONE      CLOUDY    64  63  94 NE5       30.09R
WINDOM         CLOUDY    64  63  94 N6        30.05F
WORTHINGTON    CLOUDY    63  61  93 N8        30.08R
JACKSON        CLOUDY    64  61  88 N7        30.05S
TRACY          CLOUDY    64  63  97 N6        30.07S
SLAYTON        CLOUDY    63  62  94 N7        30.09R FOG
$$
MNZ065>067-074>077-082>085-091>093-281500-
   South Central Minnesota

CITY           SKY/WX    TMP DP  RH WIND       PRES   REMARKS
MANKATO        CLOUDY    66  59  77 N8        30.03R
NEW ULM        CLOUDY    64  63  94 N5        30.04R
ST JAMES       CLOUDY    59  57  94 N5        30.05R
FAIRMONT       CLOUDY    64  61  88 N8        30.03R
GLENCOE        CLOUDY    64  63  97 NE6       30.04R
FARIBAULT      CLOUDY    66  63  88 N6        30.01S
OWATONNA       CLOUDY    66  63  88 N9        30.01R
WASECA         CLOUDY    64  61  88 N9        30.03R
ALBERT LEA     CLOUDY    66  64  94 N7        30.00S
$$
MNZ078>079-086>088-094>096-281500-
   Southeast Minnesota

CITY           SKY/WX    TMP DP  RH WIND       PRES   REMARKS
ROCHESTER      CLOUDY    67  65  93 N12       29.99R
RED WING       CLOUDY    70  64  83 N3        29.98R
STANTON        CLOUDY    68  63  83 N9        29.99S
DODGE CENTER   CLOUDY    66  64  94 N9        29.99S
WINONA         CLOUDY    70  64  83 NE5       29.95R
AUSTIN         CLOUDY    64  63  94 N7        29.98S FOG
PRESTON        CLOUDY    66  63  91 N7        29.98R
$$
ABBREVIATIONS USED IN REMARKS
   TC - TEMPERATURES IN CELSIUS
  WCI - WIND CHILL INDEX
   HX - HEAT INDEX
  VSB - VISIBILITY
$$




USA.gov is the U.S. government's official web portal to all federal, state and local government web resources and services.